Location: Dover
(39.1580°N, 75.5250°W)
Time: 01:48:49
(UTC-05:00)

Daily predictions for brighter satellites

Satellite Brightness Start Highest point End
(mag) Time Altitude Azimuth Time Altitude Azimuth Time Altitude Azimuth
CZ-3C R/B 4.3 03:31:24 24° S 03:33:58 26° SSE 03:59:58 10° E
CZ-3C R/B 4.3 03:31:24 24° S 03:33:58 26° SSE 03:59:57 10° E
CZ-3C R/B 4.3 03:31:24 24° S 03:33:59 26° SSE 03:59:58 10° E
CZ-3C R/B 4.3 03:31:24 24° S 03:33:59 26° SSE 03:59:57 10° E
Cosmos 2278 Rocket 4.0 03:45:10 26° ESE 03:45:10 26° ESE 03:47:48 10° SE
SL-16 R/B 4.1 03:45:43 16° SE 03:48:54 26° ESE 03:53:29 10° NE
Cosmos 2237 Rocket 3.8 04:24:05 24° NNE 04:24:05 24° NNE 04:26:15 10° NNE
Gbstr 26 Del rocket 4.2 04:29:44 43° ENE 04:29:44 43° ENE 04:33:00 10° ESE
Cosmos 1680 Rocket 4.2 04:30:16 10° S 04:35:19 52° ESE 04:40:23 10° NNE
USA 215 3.1 04:29:41 10° NE 04:36:14 84° NW 04:37:30 61° WSW
COSMO-SKYMED 1 4.4 04:34:13 10° SE 04:37:57 29° ENE 04:40:58 14° NNE
Lacrosse 5 rocket 4.1 04:47:25 10° NNE 04:47:25 10° NNE 04:47:26 10° NNE
Cosmos 292 Rocket 4.4 04:43:16 10° S 04:47:59 55° ESE 04:52:42 10° NNE
NOAA 6 4.4 04:48:01 10° NNE 04:53:07 65° ESE 04:58:11 10° S
Cosmos 2112 Rocket 4.3 04:48:37 10° S 04:53:48 66° ESE 04:58:57 10° NNE
CZ-3 R/B 4.0 04:48:50 10° SW 04:57:42 19° S 05:02:00 10° SE
CENTAUR R/B 2.5 04:57:18 52° W 04:58:16 58° NW 05:05:01 10° NNE
Cosmos 2184 Rocket 4.4 04:52:37 10° S 04:58:41 64° E 05:04:47 10° NNE
Meteor 1-14 Rocket 4.1 04:53:00 10° SSW 04:58:42 75° W 05:04:19 10° N
Cosmos 2219 Rocket 4.2 05:04:55 13° N 05:04:55 13° N 05:05:42 10° N
ADEOS II 4.4 04:58:12 10° N 04:58:20 11° N 04:58:20 11° N
Cosmos 2333 Rocket 3.9 05:08:13 18° NNW 05:08:13 18° NNW 05:10:03 10° N
Cosmos 2297 3.6 05:06:50 38° NW 05:09:03 73° WSW 05:14:41 10° SSE
Thor Agena Rocket 4.4 05:08:11 10° SSW 05:11:26 31° SW 05:11:26 31° SW
Okean 1 3.8 05:12:44 13° N 05:16:19 60° E 05:20:18 10° SSE
Cosmos 2181 Rocket 4.2 05:12:39 17° NNW 05:17:19 49° W 05:23:23 10° SSW
Cosmos 1238 Rocket 3.3 05:20:28 18° NNW 05:23:53 71° W 05:29:25 10° S
Cosmos 2151 Rocket 3.5 05:19:30 10° SSW 05:24:00 69° W 05:28:29 10° N
Meteor 1-25 Rocket 4.2 05:19:54 10° SSW 05:25:42 67° W 05:31:31 10° N
SKYMED 2 3.4 05:21:32 10° S 05:25:52 82° WSW 05:29:36 14° NNW
Cosmos 2278 Rocket 3.4 05:27:06 23° WSW 05:27:06 23° WSW 05:30:31 10° SSW
SL-08 ROCKET BODY 4.3 05:23:29 10° SSW 05:29:27 69° W 05:35:22 10° N
Timation 1 Rocket 4.4 05:26:09 25° NW 05:29:33 55° WSW 05:35:23 10° S
SL-16 R/B 2.5 05:27:56 13° SW 05:32:44 42° WNW 05:38:07 10° N
Tiangong 2 1.1 05:32:51 55° NW 05:33:07 58° NNW 05:36:14 10° ENE
DELTA 2 R/B (1) 4.1 05:30:38 28° W 05:33:09 47° SSW 05:38:28 10° SE
Cosmos 2056 Rocket 4.1 05:32:28 10° N 05:37:34 56° ENE 05:42:34 10° SSE
Cosmos 1602 4.4 05:34:09 10° S 05:38:00 58° E 05:41:54 10° NNE
Cosmos 1346 Rocket 2.7 05:34:43 10° N 05:38:32 90° NNW 05:42:27 10° S
Cosmos 1610 Rocket 4.4 05:32:40 10° S 05:38:49 87° W 05:45:05 10° N
CZ-4 R/B 3.4 05:35:40 10° NE 05:39:12 30° E 05:42:40 10° SSE
Cosmos 1812 3.0 05:39:51 27° NW 05:41:25 42° W 05:45:03 10° SSW
Lacrosse 5 3.1 05:40:05 10° SSW 05:44:55 44° SE 05:49:45 10° NE
CSL-04 DEB 4.3 05:42:44 10° N 05:46:44 65° WNW 05:50:49 10° SSW
USA 32 4.2 05:41:46 10° NNW 05:46:46 47° W 05:51:44 10° SSW
DMSP B5D1-3 4.5 05:42:35 10° S 05:47:40 65° WSW 05:52:49 10° NNW
Iridium 2 4.3 05:45:06 10° SSW 05:48:34 33° W 05:52:03 10° NNW
PSLV R/B 3.4 05:47:17 31° WNW 05:48:42 63° N 05:52:03 10° E
Cosmos 1624 Rocket 4.1 05:46:36 10° NNW 05:51:54 84° ENE 05:57:13 10° SSE
Cosmos 1536 Rocket 3.9 05:48:03 10° NNW 05:52:17 44° W 05:56:28 10° SSW
Cosmos 1371 Rocket 4.0 05:50:21 10° NNW 05:55:40 73° WSW 06:00:54 10° S
Ariane Rocket 3.0 05:53:02 10° N 05:58:00 57° WNW 06:02:55 10° SSW
Cosmos 1536 3.3 05:55:15 10° S 05:59:09 62° E 06:03:07 10° NNE
YAOGAN 1 4.2 05:55:17 10° NNE 05:59:20 37° E 06:03:21 10° SSE
Cosmos 192 4.3 05:55:40 10° SSW 06:00:34 90° WNW 06:05:31 10° NNE
Helios 1B rocket 3.7 05:59:24 10° SE 06:03:18 42° ENE 06:07:13 10° N
Cosmos 2237 Rocket 4.0 06:05:58 11° NW 06:05:58 11° NW 06:07:21 10° NNW
Meteor 1-28 Rocket 3.5 06:05:04 10° S 06:08:41 44° W 06:12:20 10° NNW
Okean 1 Rocket 3.1 06:05:13 10° SSW 06:09:35 59° W 06:13:56 10° N
Cosmos 44 Rocket 3.6 06:05:39 10° SSW 06:10:50 81° ESE 06:15:59 10° NNE
Meteor 2-4 Rocket 4.0 06:06:01 10° N 06:11:30 72° E 06:17:06 10° SSE
Nadezhda 3 Rocket 4.0 06:05:51 10° N 06:12:11 73° W 06:18:31 10° S
Cosmos 1025 Rocket 3.4 06:09:39 10° N 06:14:03 68° E 06:18:23 10° SSE
COSMO-SKYMED 1 3.7 06:10:37 10° SSW 06:14:04 23° W 06:17:33 10° NW
Okean 1-7 Rocket 3.5 06:10:27 10° NNW 06:14:51 73° W 06:19:12 10° S
Gbstr 26 Del rocket 4.2 06:12:20 13° WNW 06:15:26 25° SW 06:18:47 10° S
USA 215 4.1 06:13:10 10° NNE 06:18:40 30° NNW 06:24:10 10° W
USA 129 2.8 06:19:08 10° SSW 06:20:43 22° W 06:22:09 12° NW
Cosmos 1633 3.0 06:18:56 10° SSW 06:22:23 39° W 06:25:49 10° N
GPS 2-05 Rocket1 3.8 06:19:19 10° W 06:22:46 44° S 06:26:16 10° ESE
Cosmos 921 Rocket 4.2 06:19:37 10° NW 06:23:18 25° W 06:26:58 10° SSW
Cosmos 2341 Rocket 4.0 06:19:14 10° SSW 06:25:30 68° W 06:31:46 10° N
CSL-04 Debris 4.4 06:20:29 10° N 06:25:43 49° WNW 06:30:59 10° SW
Cosmos 1452 Rocket 3.9 06:22:01 10° NNW 06:27:17 67° ENE 06:32:31 10° SSE
CSL-04 Rocket 4.1 06:22:22 10° N 06:27:33 41° WNW 06:32:39 10° SW
Cosmos 1603 4.2 06:24:45 10° SW 06:30:03 39° WNW 06:35:21 10° N
Cosmos 1340 3.7 06:28:47 10° N 06:32:28 48° ENE 06:36:08 10° SSE
Cosmos 2369 Rocket 2.3 06:30:00 10° NNW 06:35:45 85° ENE 06:41:27 10° SSE
Cosmos 1892 Rocket 3.9 06:34:38 10° N 06:39:06 72° E 06:43:33 10° SSE
